This demonstration page uses our WeatherBlox Daily Observations layout. Learn more.

Left ArrowRight Arrow

Hourly Observations for December 4, 2022

Temp ( °F °C ) Dew Point ( °F °C ) Humidity (%) Winds ( mph kmh ) Pressure ( in mb ) Visibility ( mi km ) Precip ( " mm )
12:52 am 00:52 Clear 30 -1.1 19 -7.2 63 63 SE 5 7 30.40 1030 10 16 0.00 0.00
1:52 am 01:52 Clear 31 -0.6 18 -7.8 58 58 SSE 12 19 30.36 1028 10 16 0.00 0.00
2:52 am 02:52 Mostly Cloudy 32 0 17 -8.3 53 53 SE 8 13 30.36 1028 10 16 0.00 0.00
3:52 am 03:52 Cloudy 33 0.6 17 -8.3 51 51 SSE 9 15 30.35 1028 10 16 0.00 0.00
4:52 am 04:52 Clear 32 0 17 -8.3 53 53 S 9 15 30.34 1028 10 16 0.00 0.00
5:52 am 05:52 Cloudy 33 0.6 18 -7.8 53 53 SSE 10 17 30.32 1027 10 16 0.00 0.00
6:52 am 06:52 Cloudy 33 0.6 18 -7.8 53 53 SSE 13 20 30.32 1027 10 16 0.00 0.00
7:52 am 07:52 Cloudy 34 1.1 18 -7.8 51 51 SSE 13 20 30.32 1027 10 16 0.00 0.00
8:52 am 08:52 Sunny 36 2.2 19 -7.2 50 50 SSE 12 19 30.31 1026 10 16 0.00 0.00
9:52 am 09:52 Sunny 39 3.9 21 -6.1 48 48 SSE 9 15 30.28 1025 10 16 0.00 0.00
10:52 am 10:52 Sunny 41 5 22 -5.6 46 46 SSE 6 9 30.27 1025 10 16 0.00 0.00
11:52 am 11:52 Mostly Cloudy 46 7.8 24 -4.4 42 42 S 7 11 30.23 1024 10 16 0.00 0.00
12:17 pm 12:17 Cloudy 46 7.8 23 -5 40 40 SSW 9 15 30.21 1023 10 16 0.00 0.00
12:52 pm 12:52 Cloudy 44 6.7 24 -4.4 45 45 S 7 11 30.20 1023 10 16 0.00 0.00
1:52 pm 13:52 Cloudy 45 7.2 25 -3.9 45 45 S 9 15 30.16 1022 10 16 0.00 0.00
2:28 pm 14:28 Partly Cloudy 46 7.8 26 -3.3 45 45 S 8 13 30.15 1021 10 16 0.00 0.00
2:52 pm 14:52 Partly Cloudy 45 7.2 27 -2.8 49 49 SSW 7 11 30.14 1021 10 16 0.00 0.00
3:14 pm 15:14 Cloudy 45 7.2 28 -2.2 51 51 S 7 11 30.14 1020 10 16 0.00 0.00
3:52 pm 15:52 Cloudy 45 7.2 28 -2.2 51 51 S 6 9 30.13 1020 10 16 0.00 0.00
4:38 pm 16:38 Cloudy 44 6.7 28 -2.2 53 53 S 9 15 30.13 1020 10 16 0.00 0.00
4:52 pm 16:52 Cloudy 44 6.7 28 -2.2 53 53 SSE 10 17 30.11 1020 10 16 0.00 0.00
5:52 pm 17:52 Mostly Cloudy 42 5.6 26 -3.3 53 53 SSE 10 17 30.10 1019 10 16 0.00 0.00
6:52 pm 18:52 Mostly Cloudy 41 5 28 -2.2 60 60 SE 9 15 30.08 1019 10 16 0.00 0.00
7:52 pm 19:52 Clear 40 4.4 28 -2.2 62 62 S 9 15 30.07 1018 10 16 0.00 0.00
8:52 pm 20:52 Cloudy 41 5 28 -2.2 60 60 SSE 8 13 30.04 1017 10 16 0.00 0.00
9:52 pm 21:52 Cloudy 42 5.6 30 -1.1 62 62 S 12 19 30.04 1017 10 16 0.00 0.00
10:52 pm 22:52 Mostly Cloudy 40 4.4 31 -0.6 70 70 S 7 11 30.02 1017 10 16 0.00 0.00
11:02 pm 23:02 Mostly Cloudy 41 5 31 -0.6 67 67 S 7 11 30.04 1017 10 16 0.00 0.00
11:52 pm 23:52 Cloudy 42 5.6 32 0 67 67 SSE 9 15 30.00 1016 10 16 0.00 0.00

Powered by AerisWeather